{"data":{"norad_id":52372,"intl_designator":"2022-045AT","name":"STARLINK-3796","alt_names":[],"object_type":"PAYLOAD","status":"ACTIVE","operator":null,"country":"US","launch_date":"2022-04-29","launch_site_code":"AFETR","launch_vehicle":null,"mission":null,"orbit_class":"UNKNOWN","rcs_meters":null,"size_class":null,"mass_kg":null,"dimensions":null,"purposes":["comms"],"wikipedia_slug":null,"has_3d_model":false,"image_url":null,"decayed_at":null,"tle_current":{"epoch":"2026-05-25T04:49:10.091136Z","epoch_age_seconds":50947,"freshness":"FRESH","line1":"1 52372U 22045AT  26145.20081124 -.00000578  00000+0 -18218-4 0  9993","line2":"2 52372  53.2122 205.6484 0000929  63.9625 296.1462 15.08831827227460","mean_motion":15.08831827,"eccentricity":9.29e-5,"inclination_deg":53.2122,"raan_deg":205.6484,"arg_perigee_deg":63.9625,"mean_anomaly_deg":296.1462,"bstar":-1.8218e-5,"rev_number":22746,"period_min":95.438071641367,"perigee_km":539.12569725928,"apogee_km":540.41104407715,"semimajor_km":6917.9053706682,"source":"CELESTRAK","updated_at":"2026-05-25T13:38:17.121192Z"}}}